This is the latest recevied weather packets stored in our database for station/object HB9FHL-13. If no packets are shown the sender has not sent any weather packets the latest 10 day(s).
| Time | Temp. | Humidity | Pressure | Rain* | Wind** | Luminosity | Snow |
|---|---|---|---|---|---|---|---|
| 1777759616 | 18.33° C | - | 1017.8 hPa | 0 mm | - | - | - |
| 1777759316 | 18.89° C | - | 1018.5 hPa | 0 mm | - | - | - |
| 1777759016 | 18.89° C | - | 1019.5 hPa | 0 mm | - | - | - |
| 1777758715 | 18.89° C | - | 1018.4 hPa | 0 mm | - | - | - |
| 1777758114 | 18.89° C | - | 1018.9 hPa | 0 mm | - | - | - |
| 1777757813 | 18.33° C | - | 1015 hPa | 0 mm | - | - | - |
| 1777757513 | 18.89° C | - | 1017.2 hPa | 0 mm | - | - | - |
| 1777756911 | 17.78° C | - | 1020.2 hPa | 0 mm | - | - | - |
| 1777756610 | 17.78° C | - | 1018.1 hPa | 0 mm | - | - | - |
| 1777756310 | 19.44° C | - | 1014.9 hPa | 0 mm | - | - | - |
| 1777755708 | 20.56° C | - | 1017.7 hPa | 0 mm | - | - | - |
| 1777755408 | 20.56° C | - | 1015.5 hPa | 0 mm | - | - | - |
| 1777755107 | 19.44° C | - | 1019.7 hPa | 0 mm | - | - | - |
| 1777754807 | 20.56° C | - | 1017.4 hPa | 0 mm | - | - | - |
| 1777754559 | 20° C | - | 1018.6 hPa | 0 mm | - | - | - |
| 1777754506 | 20° C | - | 1018.6 hPa | 0 mm | - | - | - |
| 1777754206 | 20° C | - | 1018.7 hPa | 0 mm | - | - | - |
| 1777753905 | 20° C | - | 1016.6 hPa | 0 mm | - | - | - |
| 1777753605 | 20° C | - | 1021.3 hPa | 0 mm | - | - | - |
| 1777753304 | 19.44° C | - | 1015 hPa | 0 mm | - | - | - |
| 1777753004 | 19.44° C | - | 1017.4 hPa | 0 mm | - | - | - |
| 1777752701 | 20° C | - | 1017.9 hPa | 0 mm | - | - | - |
| 1777752401 | 19.44° C | - | 1016.4 hPa | 0 mm | - | - | - |
| 1777752100 | 19.44° C | - | 1015.6 hPa | 0 mm | - | - | - |
| 1777751800 | 18.89° C | - | 1016.9 hPa | 0 mm | - | - | - |
* Rain since midnight (hover to see other rain measurements)
** Current wind speed in m/s (hover to see current wind gust speed)